• Join FlightAware (Why Join?)
  • Login
  • US Flag 
08:26AM EST


 

Airport Tracker/Info


-or-


 

Live Flight TrackerFlight Track Log ✈ SWA2280 ✈ 20-Apr-2013 ✈ KBWI - KBOS

Flight Track Log - Related Links

Times and Time Zones

All times are in EDT time to prevent confusion due to time zone crossing. See the SWA2280 flight status page for this flight to view local times or setup timezone preferences in your user account.

Time Position Orientation Groundspeed Altitude Reporting Facility
EDT Latitude Longitude Course Direction KTS MPH feet Rate Location/Type
09:19AM 39.1144 -76.7044 143° Southeast 181 208 4,800  Level Washington Center
09:20AM 39.1239 -76.6056 83° East 153 176 5,600 2,050 Climbing Washington Center
09:21AM 39.1308 -76.4986 85° East 193 222 8,900 2,850 Climbing Washington Center
09:22AM 39.1381 -76.3811 85° East 263 303 11,300 2,750 Climbing Washington Center
09:23AM 39.1559 -76.5792 284° West  Level FlightAware Approximate
09:23AM 39.1472 -76.2392 85° East 336 387 14,400  Level Washington Center
09:24AM 39.1708 -76.0922 78° East 384 442 17,700 2,950 Climbing Washington Center
09:25AM 39.1858 -75.9397 83° East 417 480 20,300 2,550 Climbing Washington Center
09:26AM 39.2569 -75.7981 57° Northeast 442 509 22,800 2,700 Climbing Washington Center
09:27AM 39.3572 -75.6722 44° Northeast 464 534 25,700 2,100 Climbing Washington Center
09:28AM 39.4572 -75.5406 45° Northeast 486 559 27,000 650 Climbing Washington Center
09:29AM 39.5656 -75.3978 45° Northeast 516 594 27,000 -479 Level Washington Center
09:31AM 39.7425 -75.1500 47° Northeast 553 636 25,700 -736 Descending New York Center
09:32AM 39.8414 -75.0100 47° Northeast 547 629 25,000 -347 Descending New York Center
09:33AM 39.9400 -74.8725 47° Northeast 528 608 25,000  Level New York Center
09:34AM 40.0364 -74.7372 47° Northeast 511 588 25,000  Level New York Center
09:35AM 40.1417 -74.5831 48° Northeast 506 582 25,000  Level New York Center
09:36AM 40.2372 -74.4578 45° Northeast 514 592 25,000  Level New York Center
09:37AM 40.3472 -74.3383 40° Northeast 514 592 25,000  Level New York Center
09:38AM 40.4392 -74.1906 51° Northeast 514 592 25,000  Level New York Center
09:39AM 40.5247 -74.0392 53° Northeast 514 592 25,000  Level New York Center
09:41AM 40.7328 -73.6644 54° Northeast 532 612 25,000  Level Boston Center
09:42AM 40.8136 -73.5150 54° Northeast 521 600 25,000 -500 Level Boston Center
09:43AM 40.9044 -73.3711 50° Northeast 510 587 24,000 -500 Descending Boston Center
09:44AM 40.9931 -73.2403 48° Northeast 498 573 24,000 -450 Level Boston Center
09:45AM 41.0856 -73.1036 48° Northeast 484 557 23,100 -1,100 Descending Boston Center
09:46AM 41.1883 -72.9503 48° Northeast 494 568 21,800 -1,050 Descending Boston Center
09:47AM 41.2597 -72.8017 57° Northeast 489 563 21,000 -400 Descending Boston Center
09:48AM 41.3081 -72.6694 64° Northeast 489 563 21,000  Level Boston Center
09:49AM 41.3731 -72.4983 63° Northeast 477 549 21,000 -250 Level Boston Center
09:50AM 41.4292 -72.3431 64° Northeast 466 536 20,500 -500 Descending Boston Center
09:51AM 41.4936 -72.1714 63° Northeast 457 526 20,000 -550 Descending Boston Center
09:52AM 41.5514 -72.0158 64° Northeast 457 526 19,400 -500 Descending Boston Center
09:53AM 41.5967 -71.8628 68° East 457 526 19,000 -650 Descending Boston Center
09:54AM 41.6436 -71.7067 68° East 451 519 18,100 -800 Descending Boston Center
09:55AM 41.6842 -71.5700 68° East 451 519 17,400 -1,600 Descending Boston Center
09:56AM 41.7331 -71.4136 67° East 431 496 14,900 -2,100 Descending Boston Center
09:57AM 41.7839 -71.2903 61° Northeast 410 472 13,200 -1,800 Descending Boston Center
09:58AM 41.8389 -71.1611 60° Northeast 410 472 11,300 -1,100 Descending Boston Center
09:59AM 41.8956 -71.0261 61° Northeast 388 447 11,000 -134 Descending Boston Center
10:01AM 41.9500 -70.8833 63° Northeast 358 412 11,000 -358 Level KA90
10:02AM 42.0000 -70.7667 60° Northeast 359 413 10,200 -1,105 Descending KA90
10:02AM 42.0667 -70.6833 43° Northeast 358 412 8,900 -1,545 Descending KA90
10:04AM 42.1667 -70.6000 32° Northeast 340 391 6,800 -1,545 Descending KA90
10:05AM 42.2500 -70.6000 360° North 307 353 5,500 -1,000 Descending KA90
10:06AM 42.3333 -70.5833 North 256 295 4,800 -850 Descending KA90
10:07AM 42.3833 -70.6000 346° North 231 266 3,800 -850 Descending KA90
10:08AM 42.4167 -70.6667 304° West 189 217 3,100 -421 Descending KA90
10:09AM 42.4167 -70.7167 270° West 169 194 3,000 -56 Descending KA90
10:10AM 42.4000 -70.7667 246° West 150 173 3,000 -350 Level KA90
10:11AM 42.3833 -70.8333 251° West 147 169 2,300 -744 Descending KA90
10:12AM 42.3833 -70.8833 270° West 152 175 1,500 -730 Descending KA90
10:12AM 42.3667 -70.9333 246° West 137 158 900 -690 Descending KA90
10:13AM 42.3667 -70.9667 270° West 124 143 200 -712 Descending KA90